Regional Weather Roundup
Issued by NWS

Home | Current Version | Previous Version | Graphics & Text | Print | Product List | Glossary On
Versions: 1 2 3 4 5 6 7 8 9 10 11 12 13 14 15 16 17 18 19 20 21 22 23 24 25 26 27 28 29 30 31 32 33 34 35 36 37 38 39 40 41 42 43 44 45 46 47 48 49 50
896
ASUS44 KLIX 181905
RWRLA
LOUISIANA WEATHER ROUNDUP
NATIONAL WEATHER SERVICE NEW ORLEANS LA
100 PM CST THU DEC 18 2014

NOTE: "FAIR" INDICATES FEW OR NO CLOUDS BELOW 12,000 FEET WITH NO
      SIGNIFICANT WEATHER AND/OR OBSTRUCTIONS TO VISIBILITY.
      SKY/WX - SKY CONDITION AND SIGNIFICANT WEATHER.
      TMP - AIR TEMPERATURE.    DP   - DEWPOINT TEMPERATURE.
      RH  - RELATIVE HUMIDITY.  PRES - PRESSURE.
      HX  - HEAT INDEX.         WCI  - WIND CHILL INDEX.

*  THESE STATIONS ARE NOT NWS OR FAA STATIONS AND ARE NOT UNDER
   NWS QUALITY CONTROL.

LAZ040-048-061>063-065-066-069-182000-
SOUTHEAST LOUISIANA

CITY           SKY/WX    TMP DP  RH WIND       PRES   REMARKS
N.O. AUDUBON     N/A     67  56  67 MISG        N/A
N.O. INTL ARPT CLOUDY    67  53  61 SE12      30.11F
N.O. LAKEFRONT PTSUNNY   66  52  60 E12       30.11F
N.O. DOWNTOWN* CLOUDY    66  52  59 SE9       30.12F
SLIDELL        MOSUNNY   66  51  58 SE9       30.11F
BATON ROUGE    CLOUDY    64  52  64 SE8       30.09F
BOOTHVILLE     MOSUNNY   66  57  72 E10       30.13F
BELLE CHASSE   PTSUNNY   66  53  63 E10       30.12F
BOGALUSA*        N/A     69  48  48 S6        30.12F
GALLIANO*      MOCLDY    69  56  62 MISG      30.12F
NEW ROADS*     CLOUDY    60  51  71 CALM      30.11S
GONZALES*      CLOUDY    66  55  67 SE7       30.10F
HAMMOND*       NOT AVBL
HOUMA*         PTSUNNY   70  57  64 SE8       30.11F
PORT FOURCHON* CLEAR     66  59  77 E14       30.14F

$$

LAZ041-044-053-054-182000-
SOUTHWEST LOUISIANA

CITY           SKY/WX    TMP DP  RH WIND       PRES   REMARKS
LAKE CHARLES   CLOUDY    62  55  77 NE9       30.08F
LAFAYETTE      CLOUDY    66  55  67 S6        30.09F
PATTERSON      CLOUDY    68  57  68 E9        30.10F
SALT POINT       N/A     68  58  70 SE9       30.08F
NEW IBERIA     CLOUDY    68  57  68 SE7       30.09F
CHENAULT AIRPK CLOUDY    61  54  77 NE6       30.10F

$$

LAZ027-028-182000-
CENTRAL LOUISIANA

CITY           SKY/WX    TMP DP  RH WIND       PRES   REMARKS
FORT POLK      CLOUDY    53  51  93 E3        30.09F
ALEXANDRIA INT LGT RAIN  51  49  92 NE5       30.12F
ALEXANDRIA     CLOUDY    52  49  89 N3        30.13F

$$

LAZ001-002-182000-
NORTHWEST LOUISIANA

CITY           SKY/WX    TMP DP  RH WIND       PRES   REMARKS
SHREVEPORT     CLOUDY    50  45  83 CALM      30.14F
BARKSDALE AFB  NOT AVBL
DTN SHREVEPORT CLOUDY    49  43  80 CALM      30.15F

$$

LAZ014-016-182000-
NORTHEAST LOUISIANA

CITY           SKY/WX    TMP DP  RH WIND       PRES   REMARKS
MONROE         CLOUDY    51  45  79 E7        30.15F
TALLULAH       CLOUDY    51  44  77 E9        30.15F

$$




USA.gov is the U.S. government's official web portal to all federal, state and local government web resources and services.